DW9403 Weather Reports


time (UTC)temp
C
wind
direction
speed
KPH
gust
KPH
rain 1hr
cm
rain 24hr
cm
rain mn
cm
humidity
%
barometer
mb
20260506103051 13 248 0.0 0.0 0.00 0.00 0.00 88 1016.7
20260506101551 13 248 0.0 0.0 0.00 0.00 0.00 88 1016.6
20260506100047 13 248 0.0 0.0 0.00 0.00 0.00 89 1016.5
20260506094601 13 248 0.0 0.0 0.00 0.00 0.00 88 1016.5
20260506093044 13 248 0.0 0.0 0.00 0.00 0.00 87 1016.3
20260506091546 13 248 0.0 0.0 0.00 0.00 0.00 87 1016.2
20260506090043 13 248 0.0 0.0 0.00 0.00 0.00 87 1016.2
20260506084544 13 248 0.0 0.0 0.00 0.00 0.00 86 1016.2
20260506083041 13 248 0.0 0.0 0.00 0.00 0.00 86 1016.3
20260506081539 13 248 0.0 0.0 0.00 0.00 0.00 85 1016.3
20260506073038 13 111 0.0 0.0 0.00 0.00 0.00 82 1015.9
20260506071535 13 111 0.0 0.0 0.00 0.00 0.00 83 1015.7
20260506061533 14 113 0.0 0.0 0.00 0.00 0.00 81 1015.6
20260506044524 14 284 0.0 0.0 0.00 0.00 0.00 80 1015.1
20260506043024 14 284 0.0 0.0 0.00 0.00 0.00 79 1015.0
20260506041523 14 284 0.0 0.0 0.00 0.00 0.00 80 1014.9
20260506040023 14 284 0.0 0.0 0.00 0.00 0.00 80 1014.8
20260506034523 14 284 0.0 0.0 0.00 0.00 0.00 80 1014.7
20260506033023 15 284 0.0 0.0 0.00 0.00 0.00 80 1014.4
20260506031523 15 284 0.0 0.0 0.00 0.00 0.00 79 1014.4
20260506030029 15 284 0.0 0.0 0.00 0.00 0.00 78 1014.2
20260506024536 15 284 0.0 0.0 0.00 0.00 0.00 79 1014.1
20260506023021 15 284 0.0 0.0 0.00 0.00 0.00 78 1014.0
20260506021522 15 284 0.0 0.0 0.00 0.00 0.00 79 1013.9
20260506020019 15 284 0.0 0.0 0.00 0.00 0.00 78 1014.0
20260506014520 15 284 0.0 0.0 0.00 0.00 0.00 78 1014.0
20260506013020 15 284 0.0 0.0 0.00 0.00 0.00 77 1013.9
20260506011520 15 285 0.0 0.0 0.00 0.00 0.00 77 1013.9
20260506010020 15 285 0.0 0.0 0.00 0.00 0.00 77 1013.9
20260506004517 16 288 0.0 0.0 0.00 0.00 0.00 76 1013.9
20260506003018 16 289 0.0 0.0 0.00 0.00 0.00 76 1014.0
20260506001519 15 278 0.0 0.0 0.00 0.00 0.00 76 1014.0
20260506000016 15 275 0.0 0.0 0.00 0.00 0.00 76 1014.2
20260505234526 16 277 0.0 0.0 0.00 0.00 0.00 77 1014.4
20260505233020 16 238 0.0 0.0 0.00 0.00 0.00 77 1014.4
20260505231516 16 277 0.0 0.0 0.00 0.00 0.00 77 1014.5
20260505230032 16 238 0.0 0.0 0.00 0.00 0.00 76 1014.4
20260505224515 16 261 0.0 0.0 0.00 0.00 0.00 77 1014.5
20260505223014 16 288 0.0 0.0 0.00 0.00 0.00 76 1014.5
20260505221514 16 288 0.0 0.0 0.00 0.00 0.00 74 1014.6
20260505220012 16 288 0.0 0.0 0.00 0.00 0.00 73 1014.6
20260505214512 16 286 0.0 0.0 0.00 0.00 0.00 72 1014.6
20260505213011 16 234 0.0 0.0 0.00 0.00 0.00 78 1014.7
20260505211513 16 264 0.0 0.0 0.00 0.00 0.00 75 1014.8
20260505210005 15 269 0.0 0.0 0.00 0.00 0.00 75 1014.9
20260505204502 15 263 0.0 0.0 0.00 0.00 0.00 79 1015.0
20260505203003 14 231 0.0 0.0 0.00 0.00 0.00 80 1015.1
20260505201501 14 210 0.0 0.0 0.00 0.00 0.00 79 1015.2
20260505200002 14 294 0.0 0.0 0.00 0.00 0.00 82 1015.2
20260505194600 14 200 0.0 0.0 0.00 0.00 0.00 82 1015.1
20260505193100 13 171 0.0 0.0 0.00 0.00 0.00 85 1015.2
20260505191625 13 194 0.0 0.0 0.00 0.00 0.00 84 1015.2
20260505190058 13 188 0.0 0.0 0.00 0.00 0.00 85 1015.2
20260505184558 13 271 0.0 0.0 0.00 0.00 0.00 85 1015.2
20260505183057 13 281 0.0 0.0 0.00 0.00 0.00 85 1015.2
20260505181557 12 287 0.0 0.0 0.00 0.00 0.00 87 1015.2
20260505180105 12 286 0.0 0.0 0.00 0.00 0.00 87 1015.2
20260505174609 12 135 0.0 0.0 0.00 0.00 0.00 89 1015.2
20260505173055 11 136 0.0 0.0 0.00 0.00 0.00 89 1015.1
20260505171554 11 135 0.0 0.0 0.00 0.00 0.00 90 1015.0
20260505170052 11 134 0.0 0.0 0.00 0.00 0.00 90 1015.0
20260505164553 11 134 0.0 0.0 0.00 0.00 0.00 91 1014.8
20260505163051 11 134 0.0 0.0 0.00 0.00 0.00 91 1014.8
20260505161554 11 132 0.0 0.0 0.00 0.00 0.00 92 1014.7
20260505153048 11 132 0.0 0.0 0.00 0.00 0.00 93 1014.6
20260505151547 11 129 0.0 0.0 0.00 0.00 0.00 93 1014.6
20260505124535 11 160 0.0 0.0 0.00 0.00 0.00 89 1013.6
20260505123036 11 160 0.0 0.0 0.00 0.00 0.00 89 1013.6
20260505121532 11 160 0.0 0.0 0.00 0.00 0.00 88 1013.5
20260505120031 11 160 0.0 0.0 0.00 0.00 0.00 88 1013.5
20260505114530 11 161 0.0 0.0 0.00 0.00 0.00 88 1013.4
20260505113028 11 161 0.0 0.0 0.00 0.00 0.00 87 1013.4
20260505111528 11 157 0.0 0.0 0.00 0.00 0.00 87 1013.4